FW4174 Weather Reports


time (UTC)temp
C
wind
direction
speed
KPH
gust
KPH
rain 1hr
cm
rain 24hr
cm
rain mn
cm
humidity
%
barometer
mb
20260510092045 2 0 0.0 1.6 0.00 0.00 0.00 64 1017.8
20260510091554 3 0 0.0 0.0 0.00 0.00 0.00 64 1017.7
20260510091048 3 0 0.0 1.6 0.00 0.00 0.00 64 1017.6
20260510090547 3 0 0.0 3.2 0.00 0.00 0.00 64 1017.6
20260510090052 2 0 0.0 4.8 0.00 0.00 0.00 64 1017.4
20260510085549 2 344 1.6 4.8 0.00 0.00 0.00 63 1017.4
20260510085046 2 344 0.0 4.8 0.00 0.00 0.00 62 1017.4
20260510084557 2 0 0.0 4.8 0.00 0.00 0.00 61 1017.2
20260510084046 3 344 1.6 6.4 0.00 0.00 0.00 58 1017.3
20260510083547 4 245 0.0 12.9 0.00 0.00 0.00 58 1017.2
20260510083056 4 245 4.8 12.9 0.00 0.00 0.00 57 1017.0
20260510082545 4 245 8.0 12.9 0.00 0.00 0.00 58 1016.8
20260510082045 4 238 8.0 12.9 0.00 0.00 0.00 58 1016.7
20260510081554 4 232 6.4 12.9 0.00 0.00 0.00 59 1016.7
20260510081047 3 232 8.0 12.9 0.00 0.00 0.00 58 1016.6
20260510080545 4 246 6.4 12.9 0.00 0.00 0.00 58 1016.6
20260510075548 4 248 6.4 12.9 0.00 0.00 0.00 58 1016.6
20260510075047 4 229 8.0 11.3 0.00 0.00 0.00 57 1016.6
20260510074552 4 250 8.0 12.9 0.00 0.00 0.00 57 1016.6
20260510074048 4 248 6.4 12.9 0.00 0.00 0.00 57 1016.6
20260510073546 4 246 8.0 12.9 0.00 0.00 0.00 56 1016.6
20260510073114 5 247 6.4 9.7 0.00 0.00 0.00 55 1016.6
20260510072547 5 235 4.8 8.0 0.00 0.00 0.00 55 1016.6
20260510072046 5 241 4.8 8.0 0.00 0.00 0.00 55 1016.6
20260510071552 5 244 4.8 8.0 0.00 0.00 0.00 56 1016.7
20260510071047 5 239 4.8 8.0 0.00 0.00 0.00 57 1016.7
20260510070545 4 240 4.8 8.0 0.00 0.00 0.00 58 1016.7
20260510070057 4 236 3.2 6.4 0.00 0.00 0.00 59 1016.8
20260510065547 3 221 3.2 8.0 0.00 0.00 0.00 58 1016.8
20260510065046 4 227 4.8 8.0 0.00 0.00 0.00 56 1016.8
20260510064631 5 238 4.8 8.0 0.00 0.00 0.00 55 1016.7
20260510064048 5 234 3.2 6.4 0.00 0.00 0.00 53 1016.7
20260510063547 6 229 3.2 6.4 0.00 0.00 0.00 53 1016.5
20260510063053 6 236 1.6 3.2 0.00 0.00 0.00 53 1016.5
20260510062548 6 0 0.0 4.8 0.00 0.00 0.00 54 1016.6
20260510062048 5 236 0.0 6.4 0.00 0.00 0.00 54 1016.6
20260510061550 5 236 3.2 8.0 0.00 0.00 0.00 54 1016.6
20260510061047 5 225 4.8 8.0 0.00 0.00 0.00 54 1016.5
20260510060547 5 235 4.8 8.0 0.00 0.00 0.00 55 1016.6
20260510060057 5 233 4.8 8.0 0.00 0.00 0.00 56 1016.6
20260510055546 5 217 4.8 8.0 0.00 0.00 0.00 56 1016.6
20260510055045 4 228 4.8 8.0 0.00 0.00 0.00 55 1016.6
20260510054557 5 234 4.8 8.0 0.00 0.00 0.00 54 1016.5
20260510054046 5 238 6.4 8.0 0.00 0.00 0.00 52 1016.5
20260510053545 5 224 4.8 8.0 0.00 0.00 0.00 51 1016.5
20260510053055 6 234 3.2 4.8 0.00 0.00 0.00 50 1016.5
20260510052547 6 0 0.0 1.6 0.00 0.00 0.00 51 1016.5
20260510052045 7 306 0.0 1.6 0.00 0.00 0.00 51 1016.4
20260510051601 7 306 0.0 1.6 0.00 0.00 0.00 51 1016.3
20260510051048 7 305 0.0 3.2 0.00 0.00 0.00 51 1016.3
20260510050548 7 0 0.0 3.2 0.00 0.00 0.00 52 1016.3
20260510050055 6 0 0.0 3.2 0.00 0.00 0.00 51 1016.2
20260510045547 7 306 0.0 3.2 0.00 0.00 0.00 50 1016.2
20260510045047 7 0 0.0 1.6 0.00 0.00 0.00 49 1016.2
20260510044556 7 0 0.0 1.6 0.00 0.00 0.00 49 1016.1
20260510044047 7 0 0.0 0.0 0.00 0.00 0.00 49 1016.1
20260510043547 7 0 0.0 0.0 0.00 0.00 0.00 49 1016.0
20260510043050 7 0 0.0 0.0 0.00 0.00 0.00 48 1016.0
20260510042547 8 0 0.0 0.0 0.00 0.00 0.00 48 1016.0
20260510042045 8 0 0.0 1.6 0.00 0.00 0.00 47 1016.0
20260510041554 8 0 0.0 1.6 0.00 0.00 0.00 47 1015.9
20260510041045 8 0 0.0 1.6 0.00 0.00 0.00 47 1016.0
20260510040546 8 0 0.0 1.6 0.00 0.00 0.00 47 1015.9
20260510040050 8 0 0.0 1.6 0.00 0.00 0.00 47 1015.9
20260510035545 8 0 0.0 1.6 0.00 0.00 0.00 47 1015.8
20260510035045 8 0 0.0 1.6 0.00 0.00 0.00 48 1015.8
20260510034618 8 0 0.0 1.6 0.00 0.00 0.00 47 1015.7
20260510034043 8 0 0.0 1.6 0.00 0.00 0.00 46 1015.7
20260510033546 8 0 0.0 3.2 0.00 0.00 0.00 46 1015.6
20260510033057 8 0 0.0 3.2 0.00 0.00 0.00 46 1015.7
20260510032543 8 305 0.0 3.2 0.00 0.00 0.00 45 1015.6
20260510032043 8 305 0.0 3.2 0.00 0.00 0.00 44 1015.6
20260510031551 8 306 1.6 3.2 0.00 0.00 0.00 44 1015.6
20260510031043 8 0 0.0 1.6 0.00 0.00 0.00 44 1015.5
20260510030543 9 0 0.0 3.2 0.00 0.00 0.00 44 1015.5
20260510030054 9 0 0.0 4.8 0.00 0.00 0.00 44 1015.3
20260510025545 9 0 1.6 4.8 0.00 0.00 0.00 43 1015.3
20260510025043 9 306 1.6 4.8 0.00 0.00 0.00 42 1015.2
20260510024552 9 306 3.2 4.8 0.00 0.00 0.00 42 1015.1
20260510024044 10 309 1.6 4.8 0.00 0.00 0.00 42 1015.1
20260510023542 10 309 1.6 6.4 0.00 0.00 0.00 42 1015.0
20260510023049 10 309 3.2 6.4 0.00 0.00 0.00 42 1014.9
20260510022543 10 315 1.6 4.8 0.00 0.00 0.00 42 1014.7
20260510022043 10 308 3.2 6.4 0.00 0.00 0.00 41 1014.6
20260510021559 10 314 1.6 6.4 0.00 0.00 0.00 41 1014.4
20260510021045 10 312 1.6 6.4 0.00 0.00 0.00 41 1014.3
20260510020545 10 314 3.2 6.4 0.00 0.00 0.00 40 1014.3
20260510020052 11 313 3.2 8.0 0.00 0.00 0.00 40 1014.1
20260510015545 11 314 3.2 8.0 0.00 0.00 0.00 40 1014.0
20260510015045 11 313 3.2 8.0 0.00 0.00 0.00 39 1013.9
20260510014600 11 314 1.6 6.4 0.00 0.00 0.00 38 1013.8
20260510014044 11 309 3.2 6.4 0.00 0.00 0.00 38 1013.7
20260510013545 11 320 3.2 6.4 0.00 0.00 0.00 38 1013.5
20260510013121 12 310 3.2 8.0 0.00 0.00 0.00 37 1013.5
20260510012543 12 305 3.2 12.9 0.00 0.00 0.00 36 1013.4
20260510012043 12 328 4.8 12.9 0.00 0.00 0.00 36 1013.3
20260510011556 12 332 3.2 9.7 0.00 0.00 0.00 35 1013.3
20260510011042 12 311 3.2 11.3 0.00 0.00 0.00 35 1013.2
20260510010542 13 305 3.2 11.3 0.00 0.00 0.00 34 1013.2
20260510010054 13 275 3.2 11.3 0.00 0.00 0.00 34 1013.1
20260510005545 13 292 3.2 12.9 0.00 0.00 0.00 34 1013.1
20260510005045 13 308 3.2 14.5 0.00 0.00 0.00 33 1013.0
20260510004554 13 318 6.4 14.5 0.00 0.00 0.00 33 1013.0
20260510004045 13 319 6.4 14.5 0.00 0.00 0.00 33 1012.9
20260510003545 13 307 6.4 14.5 0.00 0.00 0.00 32 1012.8
20260510003104 13 275 4.8 12.9 0.00 0.00 0.00 31 1012.7
20260510002543 14 295 3.2 14.5 0.00 0.00 0.00 31 1012.7
20260510002045 13 332 4.8 14.5 0.00 0.00 0.00 31 1012.5
20260510001554 13 337 4.8 14.5 0.00 0.00 0.00 31 1012.6
20260510001045 13 306 3.2 16.1 0.00 0.00 0.00 31 1012.5
20260510000547 14 313 8.0 17.7 0.00 0.00 0.00 30 1012.5
20260510000116 14 352 11.3 17.7 0.00 0.00 0.00 30 1012.4
20260509235545 15 312 4.8 17.7 0.00 0.00 0.00 28 1012.4
20260509235042 15 296 8.0 17.7 0.00 0.00 0.00 28 1012.3
20260509234554 15 328 4.8 16.1 0.00 0.00 0.00 27 1012.4
20260509234042 15 275 9.7 16.1 0.00 0.00 0.00 27 1012.3
20260509233545 15 297 4.8 17.7 0.00 0.00 0.00 27 1012.1
20260509233055 16 5 8.0 17.7 0.00 0.00 0.00 28 1012.0
20260509232542 16 336 4.8 24.1 0.00 0.00 0.00 27 1012.0
20260509232045 16 300 9.7 24.1 0.00 0.00 0.00 29 1011.9
20260509231556 16 351 16.1 24.1 0.00 0.00 0.00 28 1011.8
20260509231044 16 360 9.7 25.7 0.00 0.00 0.00 29 1011.8
20260509230545 16 298 12.9 25.7 0.00 0.00 0.00 29 1011.8
20260509230052 16 313 9.7 22.5 0.00 0.00 0.00 28 1011.8
20260509225546 16 339 6.4 27.4 0.00 0.00 0.00 29 1011.6
20260509225045 16 288 12.9 27.4 0.00 0.00 0.00 28 1011.6
20260509224552 16 269 6.4 17.7 0.00 0.00 0.00 28 1011.3
20260509224045 16 5 8.0 17.7 0.00 0.00 0.00 27 1011.4
20260509223545 16 277 6.4 19.3 0.00 0.00 0.00 26 1011.2
20260509223103 16 272 8.0 20.9 0.00 0.00 0.00 28 1011.1
20260509222546 16 319 11.3 20.9 0.00 0.00 0.00 28 1011.1
20260509222043 16 323 3.2 17.7 0.00 0.00 0.00 27 1011.0
20260509221600 17 22 8.0 17.7 0.00 0.00 0.00 27 1011.0
20260509221045 17 324 9.7 17.7 0.00 0.00 0.00 28 1011.0
20260509220545 16 288 6.4 19.3 0.00 0.00 0.00 26 1010.9
20260509220052 16 293 9.7 19.3 0.00 0.00 0.00 26 1011.0
20260509215544 16 205 6.4 17.7 0.00 0.00 0.00 26 1010.9
20260509215043 17 294 4.8 17.7 0.00 0.00 0.00 25 1011.0
20260509214600 17 336 6.4 17.7 0.00 0.00 0.00 25 1010.9
20260509214043 17 274 6.4 24.1 0.00 0.00 0.00 26 1010.8
20260509213545 17 311 6.4 24.1 0.00 0.00 0.00 27 1010.9
20260509213051 17 336 12.9 24.1 0.00 0.00 0.00 27 1010.9
20260509212547 17 318 8.0 24.1 0.00 0.00 0.00 26 1010.8
20260509212044 17 308 14.5 24.1 0.00 0.00 0.00 27 1010.8
20260509211552 17 307 8.0 20.9 0.00 0.00 0.00 26 1010.8
20260509211045 17 310 6.4 20.9 0.00 0.00 0.00 27 1010.7
20260509210546 17 11 6.4 22.5 0.00 0.00 0.00 26 1010.7
20260509210051 17 261 8.0 22.5 0.00 0.00 0.00 27 1010.6
20260509205544 17 324 16.1 22.5 0.00 0.00 0.00 25 1010.6
20260509205044 18 283 9.7 24.1 0.00 0.00 0.00 24 1010.4
20260509204553 18 309 12.9 24.1 0.00 0.00 0.00 26 1010.6
20260509204045 18 343 9.7 27.4 0.00 0.00 0.00 26 1010.5
20260509203545 17 352 12.9 29.0 0.00 0.00 0.00 27 1010.4
20260509203049 18 315 19.3 29.0 0.00 0.00 0.00 25 1010.4
20260509202542 18 316 6.4 20.9 0.00 0.00 0.00 26 1010.3
20260509202045 18 38 9.7 24.1 0.00 0.00 0.00 26 1010.2
20260509201549 18 338 11.3 24.1 0.00 0.00 0.00 28 1010.2
20260509201044 18 316 8.0 17.7 0.00 0.00 0.00 28 1010.3
20260509200544 17 291 8.0 22.5 0.00 0.00 0.00 27 1010.1
20260509200106 17 312 9.7 27.4 0.00 0.00 0.00 28 1010.1
20260509195545 17 331 9.7 35.4 0.00 0.00 0.00 28 1010.0
20260509195045 17 327 16.1 35.4 0.00 0.00 0.00 28 1010.0
20260509194554 18 324 17.7 25.7 0.00 0.00 0.00 27 1010.1
20260509194045 18 325 11.3 22.5 0.00 0.00 0.00 29 1009.9
20260509193544 18 307 6.4 19.3 0.00 0.00 0.00 29 1009.9
20260509193051 18 296 6.4 27.4 0.00 0.00 0.00 31 1010.0
20260509192545 18 309 12.9 27.4 0.00 0.00 0.00 29 1009.9
20260509192045 18 317 4.8 20.9 0.00 0.00 0.00 31 1009.8
20260509191549 17 310 9.7 33.8 0.00 0.00 0.00 31 1009.9
20260509191045 17 327 16.1 33.8 0.00 0.00 0.00 32 1009.9
20260509190544 17 299 14.5 27.4 0.00 0.00 0.00 31 1009.9
20260509190055 17 284 9.7 27.4 0.00 0.00 0.00 29 1009.9
20260509185545 17 321 8.0 25.7 0.00 0.00 0.00 29 1009.8
20260509185045 17 307 11.3 25.7 0.00 0.00 0.00 30 1009.7
20260509184553 17 5 16.1 25.7 0.00 0.00 0.00 30 1009.8
20260509184044 17 327 11.3 22.5 0.00 0.00 0.00 29 1009.7
20260509183544 17 301 6.4 22.5 0.00 0.00 0.00 30 1009.6
20260509183104 17 309 9.7 19.3 0.00 0.00 0.00 29 1009.6
20260509182545 17 273 11.3 27.4 0.00 0.00 0.00 31 1009.6
20260509182044 17 311 12.9 33.8 0.00 0.00 0.00 33 1009.6
20260509181552 17 325 19.3 33.8 0.00 0.00 0.00 33 1009.6
20260509181045 17 321 12.9 27.4 0.00 0.00 0.00 33 1009.6
20260509180548 17 331 12.9 27.4 0.00 0.00 0.00 34 1009.6
20260509180051 17 306 9.7 24.1 0.00 0.00 0.00 33 1009.5
20260509175545 17 293 12.9 24.1 0.00 0.00 0.00 33 1009.4
20260509175048 17 317 12.9 24.1 0.00 0.00 0.00 33 1009.4
20260509174552 17 343 11.3 24.1 0.00 0.00 0.00 35 1009.4
20260509174044 17 185 6.4 24.1 0.00 0.00 0.00 35 1009.3
20260509173544 17 298 8.0 29.0 0.00 0.00 0.00 39 1009.3
20260509173057 17 338 16.1 29.0 0.00 0.00 0.00 37 1009.3
20260509172545 17 309 4.8 17.7 0.00 0.00 0.00 37 1009.2
20260509172044 16 299 8.0 25.7 0.00 0.00 0.00 36 1009.1
20260509171556 16 27 9.7 32.2 0.00 0.00 0.00 36 1009.2
20260509171044 16 319 16.1 32.2 0.00 0.00 0.00 37 1009.3
20260509170544 16 331 11.3 25.7 0.00 0.00 0.00 38 1009.2
20260509170053 16 323 11.3 25.7 0.00 0.00 0.00 36 1009.2
20260509165545 16 323 14.5 25.7 0.00 0.00 0.00 38 1009.3
20260509165044 16 306 8.0 24.1 0.00 0.00 0.00 38 1009.2
20260509164553 16 352 11.3 25.7 0.00 0.00 0.00 41 1009.3
20260509164047 16 286 12.9 32.2 0.00 0.00 0.00 39 1009.0
20260509163545 16 327 14.5 32.2 0.00 0.00 0.00 40 1009.2
20260509163056 16 344 4.8 24.1 0.00 0.00 0.00 40 1009.0
20260509162547 15 340 11.3 29.0 0.00 0.00 0.00 42 1009.0
20260509162046 15 334 16.1 29.0 0.00 0.00 0.00 40 1009.1
20260509161554 15 335 17.7 27.4 0.00 0.00 0.00 39 1009.0
20260509161045 16 314 9.7 29.0 0.00 0.00 0.00 42 1009.0
20260509160545 15 323 14.5 29.0 0.00 0.00 0.00 42 1008.9
20260509160055 15 347 17.7 29.0 0.00 0.00 0.00 42 1008.9
20260509155547 15 317 11.3 24.1 0.00 0.00 0.00 45 1008.8
20260509155044 15 324 11.3 27.4 0.00 0.00 0.00 48 1008.8
20260509154555 15 9 12.9 27.4 0.00 0.00 0.00 49 1008.8
20260509154044 15 327 14.5 25.7 0.00 0.00 0.00 46 1008.7
20260509153544 14 325 11.3 30.6 0.00 0.00 0.00 51 1008.6
20260509153058 14 341 14.5 30.6 0.00 0.00 0.00 54 1008.6
20260509152544 14 349 6.4 27.4 0.00 0.00 0.00 56 1008.6
20260509152044 13 338 14.5 27.4 0.00 0.00 0.00 55 1008.6
20260509151600 14 322 6.4 25.7 0.00 0.00 0.00 59 1008.5
20260509151044 13 325 16.1 30.6 0.00 0.00 0.00 59 1008.4
20260509150548 13 313 12.9 30.6 0.00 0.00 0.00 60 1008.3
20260509145545 13 323 16.1 32.2 0.00 0.00 0.00 59 1008.0
20260509145045 13 331 14.5 24.1 0.00 0.00 0.00 59 1008.0
20260509144556 14 312 9.7 24.1 0.00 0.00 0.00 61 1008.0
20260509144045 13 311 9.7 29.0 0.00 0.00 0.00 62 1008.0
20260509143545 12 286 14.5 29.0 0.00 0.00 0.00 64 1007.9
20260509143101 12 323 17.7 27.4 0.00 0.00 0.00 61 1007.9
20260509142544 13 327 8.0 16.1 0.00 0.00 0.00 63 1007.9
20260509142044 13 337 6.4 19.3 0.00 0.00 0.00 64 1007.9
20260509141601 13 335 8.0 19.3 0.00 0.00 0.00 62 1007.8
20260509141045 13 323 9.7 27.4 0.00 0.00 0.00 64 1007.7
20260509140544 13 319 14.5 27.4 0.00 0.00 0.00 64 1007.6
20260509140105 13 350 16.1 24.1 0.00 0.00 0.00 64 1007.6
20260509135544 13 321 12.9 27.4 0.00 0.00 0.00 63 1007.5
20260509135048 13 278 12.9 27.4 0.00 0.00 0.00 64 1007.5
20260509134600 13 306 9.7 19.3 0.00 0.00 0.00 66 1007.4
20260509134044 13 336 6.4 16.1 0.00 0.00 0.00 66 1007.2
20260509133544 12 266 4.8 14.5 0.00 0.00 0.00 67 1007.2
20260509133051 12 325 6.4 14.5 0.00 0.00 0.00 66 1007.1
20260509132546 12 304 4.8 16.1 0.00 0.00 0.00 70 1007.0
20260509132043 12 319 4.8 16.1 0.00 0.00 0.00 71 1006.8
20260509131554 12 273 6.4 16.1 0.00 0.00 0.00 72 1006.7
20260509131045 11 290 4.8 14.5 0.00 0.00 0.00 74 1006.5
20260509130545 12 303 4.8 12.9 0.00 0.00 0.00 72 1006.4
20260509130052 12 265 4.8 12.9 0.00 0.00 0.00 72 1006.2
20260509125544 12 272 4.8 12.9 0.00 0.00 0.00 72 1006.1
20260509125043 12 281 4.8 12.9 0.00 0.00 0.00 72 1005.9
20260509124554 12 290 4.8 16.1 0.00 0.00 0.00 72 1005.8
20260509124045 12 327 4.8 16.1 0.00 0.00 0.00 71 1005.7
20260509123545 12 317 3.2 9.7 0.00 0.00 0.00 70 1005.7
20260509123115 11 302 3.2 12.9 0.00 0.00 0.00 69 1005.6
20260509122545 11 256 3.2 12.9 0.00 0.00 0.00 68 1005.6
20260509122115 11 301 1.6 9.7 0.00 0.00 0.00 68 1005.6
20260509121558 11 289 1.6 9.7 0.00 0.00 0.00 68 1005.6
20260509121049 11 257 1.6 9.7 0.00 0.00 0.00 68 1005.5
20260509120547 10 281 0.0 3.2 0.00 0.00 0.00 69 1005.5
20260509120052 10 335 0.0 3.2 0.00 0.00 0.00 69 1005.3
20260509115543 10 18 0.0 3.2 0.00 0.00 0.00 68 1005.1
20260509115043 9 0 0.0 1.6 0.00 0.00 0.00 68 1005.1
20260509114559 9 0 0.0 1.6 0.00 0.00 0.00 67 1004.9
20260509114045 9 0 0.0 3.2 0.00 0.00 0.00 67 1004.9
20260509113549 9 0 0.0 3.2 0.00 0.00 0.00 66 1005.0
20260509113050 9 311 0.0 1.6 0.00 0.00 0.00 66 1004.8
20260509112544 9 0 0.0 1.6 0.00 0.00 0.00 65 1004.7
20260509112044 9 0 0.0 3.2 0.00 0.00 0.00 64 1004.7
20260509111552 9 0 0.0 3.2 0.00 0.00 0.00 64 1004.6
20260509111044 10 0 0.0 3.2 0.00 0.00 0.00 64 1004.8
20260509110545 9 0 0.0 1.6 0.00 0.00 0.00 64 1005.1
20260509110053 9 0 0.0 3.2 0.00 0.00 0.00 64 1005.0
20260509105544 10 0 0.0 3.2 0.00 0.00 0.00 63 1004.8
20260509105044 10 0 0.0 3.2 0.00 0.00 0.00 62 1004.8
20260509104552 10 0 0.0 3.2 0.00 0.00 0.00 61 1004.9
20260509104048 10 0 0.0 3.2 0.00 0.00 0.00 61 1004.9
20260509103544 10 0 1.6 4.8 0.00 0.00 0.00 60 1004.8
20260509103103 10 311 1.6 6.4 0.00 0.00 0.00 60 1004.8
20260509102545 10 329 3.2 8.0 0.00 0.00 0.00 59 1004.7
20260509102045 10 327 3.2 9.7 0.00 0.00 0.00 58 1004.8
20260509101559 10 328 4.8 12.9 0.00 0.00 0.00 57 1004.6
20260509101045 10 319 6.4 12.9 0.00 0.00 0.00 57 1004.6
20260509100544 10 346 4.8 11.3 0.00 0.00 0.00 56 1004.6
20260509100059 10 318 4.8 11.3 0.00 0.00 0.00 56 1004.6
20260509095544 10 311 3.2 11.3 0.00 0.00 0.00 55 1004.5
20260509095044 10 302 3.2 11.3 0.00 0.00 0.00 54 1004.4
20260509094554 10 323 1.6 4.8 0.00 0.00 0.00 55 1004.3
20260509094044 10 298 0.0 4.8 0.00 0.00 0.00 54 1004.2
20260509093544 10 298 0.0 4.8 0.00 0.00 0.00 54 1003.9
20260509093051 10 298 1.6 4.8 0.00 0.00 0.00 53 1003.9
20260509092548 10 0 0.0 3.2 0.00 0.00 0.00 52 1003.5